AirNav   Air Wisconsin Up To $57,000 Bonus
 
 1020 users online  

KBXG Burke County Airport
Waynesboro, Georgia, USA

GOING TO WAYNESBORO?


FAA INFORMATION EFFECTIVE 05 DECEMBER 2019

Location

FAA Identifier: BXG
Lat/Long: 33-02-28.6000N 082-00-10.0000W
33-02.476667N 082-00.166667W
33.0412778,-82.0027778
(estimated)
Elevation: 308.4 ft. / 94.0 m (surveyed)
Variation: 04W (1985)
From city: 3 miles S of WAYNESBORO, GA
Time zone: UTC -5 (UTC -4 during Daylight Saving Time)
Zip code: 30830

Airport Operations

Airport use: Open to the public
Activation date: 12/1967
Control tower: no
ARTCC: ATLANTA CENTER
FSS: MACON FLIGHT SERVICE STATION
NOTAMs facility: MCN (NOTAM-D service available)
Attendance: UNATNDD
Wind indicator: lighted
Segmented circle: yes
Lights: ACTVT MIRL RY 08/26 - CTAF.
Beacon: white-green (lighted land airport)
Operates sunset to sunrise.

Airport Communications

CTAF: 122.9
AUGUSTA APPROACH: 126.8
AUGUSTA DEPARTURE: 126.8
WX AWOS-3PT at 2J5 (9 nm S): 120.2 (478-982-4562)
WX AWOS-3PT at 2J3 (20 nm W): 119.35 (478-625-8303)
WX ASOS at AGS (20 nm N): PHONE 706-790-0631
  • APCH/DEP SVC PRVDD BY ATLANTA ARTCC ON FREQS 128.1/322.325 (AUGUSTA RCAG) WHEN APCH CTL CLSD.

Nearby radio navigation aids

VOR radial/distance  VOR name  Freq  Var
ALDr274/(35.8)ALLENDALE VOR116.7001W

 
NDB name  Hdg/Dist  Freq  Var  ID
EMORY185/25.338504WEMR . -- .-.
SYLVANIA323/31.324504WJYL .--- -.-- .-..
EMANUEL COUNTY051/31.930906WEEX . . -..-

Airport Services

Parking: tiedowns
Airframe service: NONE
Powerplant service: NONE
Bottled oxygen: NONE
Bulk oxygen: NONE

Runway Information

Runway 8/26

Dimensions: 4012 x 75 ft. / 1223 x 23 m
Surface: asphalt, in excellent condition
Weight bearing capacity: 
Single wheel: 20.0
Runway edge lights: medium intensity
RUNWAY 8  RUNWAY 26
Latitude: 33-02.369050N33-02.583145N
Longitude: 082-00.537512W081-59.794412W
Elevation: 291.9 ft.308.4 ft.
Traffic pattern: leftleft
Runway heading: 075 magnetic, 071 true255 magnetic, 251 true
Displaced threshold: no90 ft.
Markings: nonprecision, in good conditionnonprecision, in good condition
Touchdown point: yes, no lightsyes, no lights
Obstructions: 24 ft. trees, 1016 ft. from runway, 300 ft. right of centerline, 34:1 slope to clear15 ft. road, 201 ft. from runway, 200 ft. left of centerline
COUNTY ROAD 200 FT LEFT FM PARALLEL THE RY TO MID-FIELD; +3-6 FT BERM 0-200 FT FROM END OF RY 85 FT LEFT.

Airport Ownership and Management from official FAA records

Ownership: Publicly-owned
Owner: BURKE COUNTY
COUNTY COURTHOUSE PO BOX 89
WAYNESBORO, GA 30830
Phone 706-554-2324
Manager: MERV WALDROP
PO BOX 89
WAYNESBORO, GA 30830
Phone 706-554-2324
ARPT PHONE 706-554-5270.

Airport Operational Statistics

Aircraft based on the field: 10
Single engine airplanes: 9
Multi engine airplanes: 1
    
Aircraft operations: avg 57/week *
67% transient general aviation
33% local general aviation
* for 12-month period ending 31 December 2018

Additional Remarks

DEER ON & INVOF ARPT.
FOR CD CTC AUGUSTA APCH AT 706-771-1777, WHEN APCH CLSD CTC ATLANTA ARTCC 770-210-7692.

Instrument Procedures

NOTE: All procedures below are presented as PDF files. If you need a reader for these files, you should download the free Adobe Reader.

NOT FOR NAVIGATION. Please procure official charts for flight.
FAA instrument procedures published for use from 05 December 2019 at 0900Z to 02 January 2020 at 0900Z.

 
IAPs - Instrument Approach Procedures
RNAV (GPS) RWY 08   download (159KB)
RNAV (GPS) RWY 26   download (150KB)
NOTE: Special Take-Off Minimums/Departure Procedures apply   download (189KB)

Other nearby airports with instrument procedures:

2J5 - Millen Airport (9 nm S)
2J3 - Louisville Municipal Airport (20 nm W)
KAGS - Augusta Regional Airport at Bush Field (20 nm N)
KDNL - Daniel Field Airport (26 nm N)
KJYL - Plantation Airpark (31 nm SE)
 
Loc | Ops | Rwys | IFR | FBO | Links
Com | Nav | Svcs | Stats | Notes
Area around KBXG (Burke County Airport)
 
Road maps at: MapQuest Bing Google
 
Aerial photo
WARNING: Photo may not be current or correct
Aerial photo of KBXG (Burke County Airport)
Do you have a better or more recent aerial photo of Burke County Airport that you would like to share? If so, please send us your photo.

 
Sectional chart

 
Airport distance calculator
Flying to Burke County Airport? Find the distance to fly.

From to KBXG

Sunrise and sunset
Times for 10-Dec-2019
 Local
(UTC-5)
 Zulu
(UTC)
Morning civil twilight06:5411:54
Sunrise07:2112:21
Sunset17:2022:20
Evening civil twilight17:4822:48

Current date and time
Zulu (UTC)  10-Dec-2019 23:49:35
Local (UTC-5)  10-Dec-2019 18:49:35
 
METAR
K2J3 
20nm W 
102330Z AUTO 31008KT 4SM RA BR SCT006 BKN011 OVC043 16/16 A3007 RMK AO2 P0009 T01570156
KAGS 
20nm N 
102253Z 20004KT 10SM FEW048 FEW055 OVC080 23/16 A2998 RMK AO2 SLP149 T02330161
KDNL 
26nm N 
102341Z AUTO 32012G18KT 10SM -RA FEW008 FEW039 OVC065 18/15 A3004 RMK AO2 P0004 T01780150 TSNO
KJYL 
31nm SE 
102335Z AUTO 20004KT 10SM SCT070 23/17 A3002 RMK AO2 T02260167
KSBO 
32nm SW 
102330Z AUTO 33016G21KT 10SM RA SCT006 BKN034 OVC042 20/18 A3005 RMK AO2
KBNL 
33nm NE 
102335Z AUTO 16003KT 10SM FEW045 FEW070 BKN090 22/17 A3000 RMK AO2
KTBR 
36nm S 
102335Z AUTO 16006KT 10SM SCT070 22/16 A3000 RMK AO2 T02180161
KAQX 
37nm E 
102335Z AUTO 00000KT 10SM FEW050 SCT065 OVC075 21/17 A3000 RMK AO2
TAF
KAGS 
20nm N 
102121Z 1021/1118 22012G24KT P6SM VCSH BKN040 TEMPO 1022/1024 4SM SHRA OVC030 FM110300 32007KT P6SM -SHRA BKN015 FM111100 36006KT P6SM SCT012 BKN035
NOTAMs
Click for the latest NOTAMs
NOTAMs are issued by the DoD/FAA and will open in a separate window not controlled by AirNav.

 

 
 

Would you like to see your business listed on this page?

 If your business provides an interesting product or service to pilots, flight crews, aircraft, or users of the Burke County Airport, you should consider listing it here.  To start the listing process, click on the button below
 
Add a business
 

Other Pages about Burke County Airport

East Georgia's Premier Hunting and Fishing Resort & Spa
 
Update a link
 
Copyright © AirNav, LLC. All rights reserved. Privacy Policy  Contact